KB9PMA-1 Weather Reports


time (UTC)temp
F
wind
direction
speed
knots
gust
knots
rain 1hr
in
rain 24hr
in
rain mn
in
humidity
%
barometer
mb
20260509033747 54 196 0.0 0.0 0.00 0.30 0.30 96 1010.0
20260509033247 54 196 0.0 0.0 0.00 0.30 0.30 96 1010.1
20260509032747 54 196 0.0 0.9 0.00 0.30 0.30 96 1010.1
20260509032247 54 192 0.9 1.7 0.00 0.30 0.30 96 1010.2
20260509031747 54 217 0.0 3.5 0.00 0.30 0.30 96 1010.1
20260509031247 54 185 0.0 1.7 0.00 0.30 0.30 96 1010.1
20260509030747 54 227 1.7 1.7 0.00 0.30 0.30 96 1010.2
20260509030247 54 192 0.0 0.9 0.00 0.30 0.30 96 1010.2
20260509025747 54 217 0.0 1.7 0.00 0.30 0.30 96 1010.2
20260509025247 54 219 0.0 0.0 0.00 0.30 0.30 95 1010.2
20260509024747 54 219 0.0 0.0 0.00 0.30 0.30 95 1010.2
20260509024247 54 219 0.0 0.0 0.00 0.30 0.30 95 1010.2
20260509023747 54 219 0.0 0.0 0.00 0.30 0.30 95 1010.2
20260509023247 54 219 0.0 0.0 0.00 0.30 0.30 95 1010.1
20260509022747 54 219 0.0 0.0 0.00 0.30 0.30 95 1010.1
20260509022247 54 219 0.0 0.0 0.00 0.30 0.30 95 1010.1
20260509021747 54 219 0.0 0.0 0.00 0.30 0.30 95 1010.0
20260509021247 54 219 0.0 0.0 0.00 0.30 0.30 95 1010.0
20260509020747 54 219 0.0 0.0 0.00 0.30 0.30 95 1010.1
20260509020247 54 219 0.0 0.0 0.00 0.30 0.30 95 1010.1
20260509015747 54 219 0.0 0.0 0.00 0.30 0.30 95 1010.1
20260509015247 54 219 0.0 0.0 0.00 0.30 0.30 95 1010.1
20260509014747 54 219 0.0 0.0 0.00 0.30 0.30 95 1010.0
20260509014247 54 219 0.0 0.0 0.00 0.30 0.30 95 1009.9
20260509013747 54 219 0.0 1.7 0.00 0.30 0.30 95 1010.0
20260509013247 54 172 1.7 1.7 0.00 0.30 0.30 95 1010.0
20260509012747 54 226 0.0 0.0 0.00 0.30 0.30 95 1009.9
20260509012247 54 226 0.0 0.0 0.00 0.30 0.30 95 1010.0
20260509011747 54 226 0.0 2.6 0.00 0.30 0.30 95 1010.0
20260509011247 54 188 0.0 0.0 0.00 0.30 0.30 95 1010.1
20260509010747 55 188 0.0 2.6 0.00 0.30 0.30 95 1010.1
20260509010247 55 172 0.0 0.9 0.00 0.30 0.30 95 1010.0
20260509005747 55 198 0.9 1.7 0.00 0.30 0.30 95 1010.0
20260509005247 55 163 0.0 0.0 0.00 0.30 0.30 95 1009.9
20260509004747 55 163 0.0 0.0 0.00 0.30 0.30 95 1010.0
20260509004247 55 163 0.0 5.2 0.00 0.30 0.30 95 1010.0
20260509003747 55 184 2.6 2.6 0.00 0.30 0.30 95 1010.0
20260509003247 55 219 0.0 0.9 0.00 0.30 0.30 95 1010.0
20260509002747 55 210 0.0 0.9 0.00 0.30 0.30 95 1010.1
20260509002247 55 198 0.0 0.0 0.00 0.30 0.30 95 1010.1
20260509001747 55 202 0.0 3.5 0.00 0.30 0.30 95 1010.1
20260509001247 55 202 0.9 0.9 0.00 0.30 0.30 95 1010.1
20260509000747 55 212 0.0 4.3 0.00 0.30 0.30 95 1010.1
20260509000248 56 236 0.0 0.9 0.00 0.30 0.30 95 1010.1
20260508235747 56 170 0.0 0.0 0.00 0.30 0.30 95 1010.0
20260508235247 56 170 0.0 0.0 0.00 0.30 0.30 95 1010.1
20260508234747 56 170 0.0 0.0 0.00 0.30 0.30 95 1010.2
20260508234247 56 170 0.0 3.5 0.00 0.30 0.30 95 1010.3
20260508233747 56 177 0.0 6.1 0.00 0.30 0.30 95 1010.2
20260508233247 56 177 0.9 4.3 0.00 0.30 0.30 95 1010.2
20260508232747 56 160 0.0 1.7 0.00 0.30 0.30 95 1010.2
20260508232247 56 237 0.9 1.7 0.00 0.30 0.30 95 1010.2
20260508231747 56 226 0.0 0.9 0.00 0.30 0.30 95 1010.2
20260508231247 56 226 0.0 0.9 0.00 0.30 0.30 95 1010.2
20260508230747 56 174 0.0 0.9 0.00 0.30 0.30 95 1010.2
20260508230247 56 143 0.0 0.0 0.01 0.30 0.30 95 1010.2
20260508225747 56 143 0.0 0.9 0.01 0.30 0.30 95 1010.3
20260508225247 56 189 0.0 0.9 0.01 0.30 0.30 95 1010.3
20260508224747 56 250 0.0 0.0 0.01 0.30 0.30 95 1010.4
20260508224247 56 250 0.0 0.0 0.02 0.30 0.30 94 1010.3
20260508223747 56 250 0.0 2.6 0.03 0.30 0.30 94 1010.3
20260508223247 56 212 0.0 0.0 0.03 0.30 0.30 94 1010.3
20260508222747 56 212 0.0 2.6 0.03 0.30 0.30 94 1010.3
20260508222247 56 167 0.0 0.0 0.04 0.30 0.30 94 1010.3
20260508221747 56 167 0.0 0.0 0.04 0.30 0.30 94 1010.3
20260508221247 56 167 0.0 2.6 0.04 0.30 0.30 94 1010.3
20260508220747 56 213 0.9 0.9 0.05 0.30 0.30 94 1010.3
20260508220247 56 217 0.0 2.6 0.04 0.29 0.29 94 1010.3
20260508215747 56 165 0.0 0.0 0.05 0.29 0.29 94 1010.3
20260508215247 56 165 0.0 0.0 0.05 0.29 0.29 93 1010.3
20260508214747 56 165 0.0 2.6 0.05 0.29 0.29 93 1010.2
20260508214247 56 209 1.7 4.3 0.05 0.28 0.28 93 1010.4
20260508213747 56 230 1.7 2.6 0.04 0.27 0.27 93 1010.5
20260508213247 56 298 0.9 1.7 0.05 0.27 0.27 93 1010.5
20260508212747 56 241 0.9 6.1 0.06 0.27 0.27 92 1010.6
20260508212248 56 248 0.0 4.3 0.06 0.26 0.26 92 1010.6
20260508211747 56 172 1.7 3.5 0.07 0.26 0.26 92 1010.7
20260508211247 57 258 0.0 7.8 0.08 0.26 0.26 92 1010.7
20260508210748 57 163 0.0 1.7 0.09 0.25 0.25 93 1010.8
20260508210247 57 215 0.0 1.7 0.11 0.25 0.25 93 1010.9
20260508205748 57 210 0.0 5.2 0.11 0.24 0.24 92 1011.0
20260508205248 57 236 0.9 2.6 0.12 0.24 0.24 92 1010.9
20260508204747 57 262 0.0 3.5 0.13 0.24 0.24 92 1011.0
20260508204248 57 220 0.0 5.2 0.13 0.23 0.23 92 1010.9
20260508203748 57 206 0.0 2.6 0.14 0.23 0.23 92 1011.0
20260508203248 57 243 0.9 3.5 0.14 0.22 0.22 92 1011.0
20260508202748 57 215 0.9 0.9 0.13 0.21 0.21 92 1011.1
20260508202248 57 247 0.0 0.9 0.13 0.20 0.20 91 1011.2
20260508201748 57 299 0.0 3.5 0.12 0.19 0.19 91 1011.2
20260508201248 57 174 0.0 5.2 0.12 0.18 0.18 90 1011.3
20260508200748 57 227 3.5 4.3 0.10 0.16 0.16 89 1011.3
20260508200248 57 271 0.0 6.1 0.09 0.14 0.14 89 1011.3
20260508195748 57 9 0.9 5.2 0.09 0.13 0.13 89 1011.2
20260508195248 57 243 1.7 7.0 0.08 0.12 0.12 88 1011.4
20260508194748 58 251 0.0 7.0 0.07 0.11 0.11 87 1011.4
20260508194248 58 300 0.0 2.6 0.07 0.10 0.10 87 1011.5
20260508193748 58 268 1.7 1.7 0.06 0.09 0.09 87 1011.5
20260508193248 58 243 0.0 2.6 0.05 0.08 0.08 86 1011.4
20260508192748 58 302 0.9 3.5 0.05 0.08 0.08 85 1011.5
20260508192248 58 279 2.6 4.3 0.04 0.07 0.07 84 1011.4
20260508191748 59 299 0.0 5.2 0.04 0.07 0.07 83 1011.5
20260508191248 59 241 0.0 3.5 0.03 0.06 0.06 80 1011.5
20260508190748 60 150 0.9 5.2 0.03 0.06 0.06 78 1011.6
20260508190248 61 248 1.7 13.0 0.02 0.05 0.05 78 1011.5
20260508185748 61 161 1.7 6.1 0.01 0.04 0.04 74 1011.6
20260508185248 62 244 2.6 5.2 0.01 0.04 0.04 74 1011.4
20260508184748 63 296 0.0 11.3 0.01 0.04 0.04 70 1011.3
20260508184248 63 203 5.2 8.7 0.00 0.03 0.03 65 1011.4
20260508183748 64 279 0.9 8.7 0.00 0.03 0.03 61 1011.4
20260508183248 64 253 2.6 7.0 0.00 0.03 0.03 59 1011.3
20260508182748 64 243 2.6 15.6 0.00 0.03 0.03 59 1011.3
20260508182248 64 241 5.2 11.3 0.00 0.03 0.03 56 1011.4
20260508181748 65 158 3.5 5.2 0.00 0.03 0.03 57 1011.4
20260508181248 65 241 4.3 9.6 0.00 0.03 0.03 58 1011.5
20260508180748 65 241 3.5 7.0 0.00 0.03 0.03 57 1011.4
20260508180248 65 288 2.6 4.3 0.00 0.03 0.03 55 1011.4
20260508175748 65 161 0.9 10.4 0.00 0.03 0.03 52 1011.4
20260508175248 66 251 0.9 6.1 0.00 0.03 0.03 56 1011.5
20260508174748 66 118 0.0 10.4 0.00 0.03 0.03 55 1011.5
20260508174248 66 303 1.7 10.4 0.00 0.03 0.03 54 1011.5
20260508173748 66 307 0.9 7.8 0.00 0.03 0.03 56 1011.6
20260508173509 66 248 0.9 8.7 0.00 0.03 0.03 58 1011.7
20260508173248 66 248 0.9 8.7 0.00 0.03 0.03 58 1011.7
20260508172748 65 274 2.6 8.7 0.00 0.03 0.03 56 1011.8
20260508172248 64 264 4.3 7.8 0.00 0.03 0.03 60 1011.9
20260508171748 63 217 1.7 5.2 0.00 0.03 0.03 62 1012.1
20260508171248 63 289 2.6 4.3 0.00 0.03 0.03 62 1012.2
20260508170748 63 284 0.0 6.1 0.00 0.03 0.03 60 1012.4
20260508170248 63 87 0.9 6.1 0.00 0.03 0.03 62 1012.4
20260508165748 64 281 0.0 8.7 0.00 0.03 0.03 61 1012.4
20260508165248 64 278 7.8 8.7 0.00 0.03 0.03 56 1012.5
20260508164748 64 337 0.9 5.2 0.00 0.03 0.03 60 1012.7
20260508164248 64 160 1.7 7.8 0.00 0.03 0.03 59 1012.9
20260508163748 64 336 3.5 8.7 0.00 0.03 0.03 57 1012.9
20260508163248 63 298 1.7 8.7 0.00 0.03 0.03 56 1013.1
20260508162748 63 320 2.6 6.1 0.00 0.03 0.03 59 1012.9
20260508162248 62 250 3.5 10.4 0.00 0.03 0.03 59 1013.2
20260508161748 62 306 2.6 9.6 0.00 0.03 0.03 59 1013.1
20260508161248 61 215 2.6 3.5 0.00 0.03 0.03 61 1013.2
20260508160748 61 316 0.9 5.2 0.00 0.03 0.03 59 1013.2
20260508160248 61 185 1.7 7.0 0.00 0.03 0.03 60 1013.2
20260508155748 61 244 2.6 4.3 0.00 0.03 0.03 59 1013.3
20260508155248 61 219 0.9 6.1 0.00 0.03 0.03 60 1013.3
20260508154748 61 97 3.5 3.5 0.00 0.03 0.03 63 1013.3
20260508154248 60 293 0.9 9.6 0.00 0.03 0.03 62 1013.5
20260508153748 60 277 4.3 7.8 0.00 0.03 0.03 64 1013.6
20260508153248 60 292 5.2 7.8 0.00 0.03 0.03 63 1013.6
20260508152748 59 302 0.0 5.2 0.00 0.03 0.03 67 1013.7
20260508152248 59 296 2.6 10.4 0.00 0.03 0.03 63 1013.7
20260508151748 59 271 7.8 7.8 0.00 0.03 0.03 63 1013.8
20260508151248 59 223 1.7 6.1 0.00 0.03 0.03 66 1013.7
20260508150748 59 198 2.6 3.5 0.00 0.03 0.03 69 1013.7
20260508150248 59 160 1.7 6.1 0.00 0.03 0.03 63 1013.8
20260508145748 59 178 0.9 6.1 0.00 0.03 0.03 66 1013.9
20260508145248 58 230 3.5 4.3 0.00 0.03 0.03 66 1013.8
20260508144748 58 143 0.9 6.1 0.00 0.03 0.03 66 1013.9
20260508144248 57 222 5.2 6.1 0.00 0.03 0.03 69 1013.8
20260508143748 56 274 2.6 7.8 0.00 0.03 0.03 68 1013.9
20260508143248 56 248 2.6 5.2 0.00 0.03 0.03 74 1014.0
20260508142748 55 237 0.0 4.3 0.00 0.03 0.03 75 1014.0
20260508142248 54 161 0.9 4.3 0.00 0.03 0.03 80 1014.1
20260508141748 54 226 1.7 7.8 0.00 0.03 0.03 79 1014.1
20260508141248 54 281 1.7 4.3 0.00 0.03 0.03 80 1014.3
20260508140748 54 104 0.0 6.1 0.00 0.03 0.03 78 1014.3
20260508140248 54 310 1.7 6.1 0.00 0.03 0.03 79 1014.4
20260508135748 54 312 2.6 6.1 0.00 0.03 0.03 77 1014.4
20260508135248 54 229 0.9 6.1 0.00 0.03 0.03 79 1014.2
20260508134748 54 285 1.7 5.2 0.00 0.03 0.03 78 1014.1
20260508134248 54 236 1.7 6.1 0.00 0.03 0.03 78 1013.9
20260508133748 53 157 0.0 3.5 0.00 0.03 0.03 82 1013.9
20260508133248 53 182 0.0 2.6 0.00 0.03 0.03 83 1013.8
20260508132748 52 22 0.0 1.7 0.00 0.03 0.03 87 1013.7
20260508132248 52 201 0.9 6.1 0.00 0.03 0.03 89 1013.7
20260508131748 51 185 0.0 1.7 0.00 0.03 0.03 92 1013.9
20260508131248 51 181 0.0 2.6 0.00 0.03 0.03 93 1014.0
20260508130748 50 174 0.0 0.0 0.00 0.03 0.03 94 1014.0
20260508130248 50 174 0.0 0.0 0.00 0.03 0.03 94 1014.1
20260508125748 50 174 0.0 0.0 0.00 0.03 0.03 94 1014.1
20260508125248 49 174 0.0 0.0 0.00 0.03 0.03 94 1014.1
20260508124749 49 174 0.0 0.0 0.01 0.03 0.03 94 1014.1
20260508124248 49 174 0.0 0.0 0.02 0.03 0.03 94 1014.2
20260508123748 49 174 0.0 0.0 0.02 0.03 0.03 93 1014.1
20260508123248 49 174 0.0 0.0 0.03 0.03 0.03 93 1014.1
20260508122748 49 174 0.0 0.0 0.03 0.03 0.03 93 1014.0
20260508122248 49 174 0.0 0.0 0.03 0.03 0.03 92 1013.9
20260508121749 49 174 0.0 0.0 0.03 0.03 0.03 93 1013.9
20260508121254 49 174 0.0 0.0 0.00 0.03 0.03 92 1013.8
20260508121248 49 174 0.0 0.0 0.03 0.03 0.03 92 1013.8
20260508120749 49 174 0.0 0.0 0.03 0.03 0.03 92 1013.8
20260508120249 49 174 0.0 0.0 0.03 0.03 0.03 91 1013.8
20260508115749 49 174 0.0 0.0 0.03 0.03 0.03 91 1013.8
20260508115249 49 174 0.0 1.7 0.03 0.03 0.03 90 1013.8
20260508114749 50 194 0.9 1.7 0.02 0.02 0.02 88 1014.0
20260508114249 50 233 0.9 2.6 0.01 0.01 0.01 87 1014.1
20260508113749 50 272 0.9 2.6 0.01 0.01 0.01 86 1014.0
20260508113249 50 233 0.9 4.3 0.00 0.00 0.00 84 1013.9
20260508112749 51 225 3.5 4.3 0.00 0.00 0.00 84 1013.7
20260508112249 51 227 0.9 3.5 0.00 0.00 0.00 80 1013.7
20260508111749 51 191 1.7 4.3 0.00 0.00 0.00 79 1013.7
20260508111249 52 213 0.0 6.1 0.00 0.00 0.00 76 1013.7
20260508110749 52 284 1.7 7.8 0.00 0.00 0.00 77 1013.7
20260508110249 52 196 0.0 5.2 0.00 0.00 0.00 75 1013.7
20260508105749 52 234 0.0 7.0 0.00 0.00 0.00 74 1013.6
20260508105249 52 251 2.6 5.2 0.00 0.00 0.00 74 1013.6
20260508104749 52 208 0.9 7.8 0.00 0.00 0.00 75 1013.6
20260508104249 52 303 0.9 5.2 0.00 0.00 0.00 75 1013.6
20260508103749 51 243 2.6 8.7 0.00 0.00 0.00 73 1013.6
20260508103249 51 64 0.0 6.1 0.00 0.00 0.00 76 1013.6
20260508102749 51 208 1.7 7.8 0.00 0.00 0.00 77 1013.5
20260508102249 51 247 1.7 7.8 0.00 0.00 0.00 75 1013.3
20260508101749 52 268 4.3 4.3 0.00 0.00 0.00 77 1013.3
20260508101249 52 264 1.7 7.0 0.00 0.00 0.00 77 1013.4
20260508100749 52 241 0.0 4.3 0.00 0.00 0.00 76 1013.5
20260508100249 52 206 0.0 6.1 0.00 0.00 0.00 76 1013.5
20260508095749 52 240 0.9 9.6 0.00 0.00 0.00 76 1013.4
20260508095249 51 298 0.9 6.1 0.00 0.00 0.00 76 1013.5
20260508094749 51 229 0.9 12.2 0.00 0.00 0.00 78 1013.6
20260508094249 50 234 5.2 7.0 0.00 0.00 0.00 80 1013.7
20260508093749 50 49 1.7 7.8 0.00 0.00 0.00 80 1013.8
20260508093251 50 250 0.0 7.8 0.00 0.00 0.00 82 1013.8
20260508092749 50 327 0.0 3.5 0.00 0.00 0.00 83 1013.8
20260508092249 49 212 0.0 0.0 0.00 0.00 0.00 83 1013.7
20260508091749 49 212 0.0 5.2 0.00 0.00 0.00 83 1013.6
20260508091249 49 281 0.0 5.2 0.00 0.00 0.00 83 1013.7
20260508090749 49 288 0.0 3.5 0.00 0.00 0.00 84 1013.7
20260508090249 49 215 0.9 1.7 0.00 0.00 0.00 83 1013.6
20260508085749 49 222 0.0 0.0 0.00 0.00 0.00 83 1013.6
20260508085249 49 222 0.0 0.0 0.00 0.00 0.00 83 1013.6
20260508084749 49 222 0.0 4.3 0.00 0.00 0.00 82 1013.6
20260508084249 49 272 0.0 5.2 0.00 0.00 0.00 81 1013.5
20260508083749 49 206 2.6 4.3 0.00 0.00 0.00 81 1013.6
20260508083249 49 209 0.9 3.5 0.00 0.00 0.00 81 1013.5
20260508082749 49 250 0.0 7.8 0.00 0.00 0.00 79 1013.5
20260508082249 49 232 0.9 6.1 0.00 0.00 0.00 81 1013.6
20260508081749 48 264 1.7 5.2 0.00 0.00 0.00 81 1013.7
20260508081249 48 220 0.9 9.6 0.00 0.00 0.00 81 1013.8
20260508080749 48 278 2.6 4.3 0.00 0.00 0.00 82 1013.7
20260508080249 48 226 2.6 5.2 0.00 0.00 0.00 82 1013.8
20260508075749 47 154 0.0 2.6 0.00 0.00 0.00 84 1013.8
20260508075249 47 313 0.9 3.5 0.00 0.00 0.00 85 1013.8
20260508074749 47 208 1.7 3.5 0.00 0.00 0.00 86 1013.8
20260508074249 47 227 0.0 5.2 0.00 0.00 0.00 87 1013.9
20260508073749 46 279 2.6 2.6 0.00 0.00 0.00 88 1013.8
20260508073249 46 216 0.0 0.9 0.00 0.00 0.00 89 1013.8
20260508072749 46 153 0.0 0.9 0.00 0.00 0.00 89 1013.8
20260508072249 46 345 0.0 3.5 0.00 0.00 0.00 89 1013.9
20260508071749 46 143 0.0 3.5 0.00 0.00 0.00 89 1013.9
20260508071249 46 348 3.5 3.5 0.00 0.00 0.00 90 1013.9
20260508070749 46 243 0.0 0.0 0.00 0.00 0.00 90 1013.9
20260508070249 46 243 0.0 0.0 0.00 0.00 0.00 90 1014.0
20260508065749 46 243 0.0 0.0 0.00 0.00 0.00 91 1014.1
20260508065249 46 223 0.0 0.0 0.00 0.00 0.00 92 1014.1
20260508064749 46 223 0.0 0.0 0.00 0.00 0.00 92 1014.0
20260508064249 45 208 0.0 0.0 0.00 0.00 0.00 92 1014.0
20260508063749 45 225 0.0 0.9 0.00 0.00 0.00 92 1014.0
20260508063249 45 285 0.0 0.0 0.00 0.00 0.00 92 1014.1
20260508062749 45 196 0.0 0.0 0.00 0.00 0.00 92 1014.1
20260508062249 45 215 0.0 1.7 0.00 0.00 0.00 92 1014.1
20260508061749 45 163 0.0 0.9 0.00 0.00 0.00 92 1014.1
20260508061249 45 209 0.0 2.6 0.00 0.00 0.00 92 1014.1
20260508060749 45 191 0.0 0.0 0.00 0.00 0.00 92 1014.1
20260508060249 45 111 0.0 0.0 0.00 0.00 0.00 92 1014.2
20260508055749 45 111 0.0 0.0 0.00 0.00 0.00 91 1014.2
20260508055249 45 111 0.0 0.0 0.00 0.00 0.00 91 1014.3
20260508054749 45 111 0.0 0.0 0.00 0.00 0.00 91 1014.3
20260508054249 45 111 0.0 0.0 0.00 0.00 0.00 90 1014.4
20260508053749 45 111 0.0 0.0 0.00 0.00 0.00 90 1014.4
20260508053249 45 111 0.0 0.0 0.00 0.00 0.00 90 1014.4
20260508052749 45 111 0.0 0.0 0.00 0.00 0.00 90 1014.5
20260508052249 46 111 0.0 0.0 0.00 0.00 0.00 90 1014.4
20260508051749 46 111 0.0 0.0 0.00 0.00 0.00 89 1014.4
20260508051249 46 111 0.0 0.0 0.00 0.00 0.00 89 1014.4
20260508050749 46 111 0.0 0.0 0.00 0.00 0.00 88 1014.4
20260508050249 46 111 0.0 0.0 0.00 0.00 0.00 88 1014.4
20260508045749 46 111 0.0 0.0 0.00 0.00 0.00 87 1014.4
20260508045249 46 111 0.0 0.0 0.00 0.00 0.00 86 1014.5
20260508044749 47 111 0.0 0.0 0.00 0.00 0.00 86 1014.5
20260508044249 47 111 0.0 0.0 0.00 0.00 0.00 86 1014.6
20260508043749 47 111 0.0 0.0 0.00 0.00 0.00 85 1014.6
20260508043249 48 111 0.0 0.0 0.00 0.00 0.00 85 1014.6
20260508042749 48 111 0.0 0.0 0.00 0.00 0.00 84 1014.6
20260508042249 48 111 0.0 0.0 0.00 0.00 0.00 83 1014.6
20260508041749 48 111 0.0 0.0 0.00 0.00 0.00 83 1014.6
20260508041249 49 111 0.0 0.0 0.00 0.00 0.00 83 1014.6
20260508040749 49 111 0.0 0.9 0.00 0.00 0.00 82 1014.6
20260508040249 49 192 0.0 1.7 0.00 0.00 0.00 83 1014.7
20260508035749 49 241 0.0 0.0 0.00 0.00 0.00 83 1014.7
20260508035249 49 241 0.0 0.0 0.00 0.00 0.00 83 1014.7
20260508034749 49 241 0.0 2.6 0.00 0.00 0.00 83 1014.7
20260508034249 50 216 0.0 0.9 0.00 0.00 0.00 83 1014.7